When you browse on this site, cookies collect data to enhance your experience and personalize the content and advertising you see.
Visit our Privacy Policy to learn more. By continuing to use the site, you agree to this use of cookies and data.
  • In Romania
  • List of Countries
  • For 7 days
  • Water Temperature
  • Satellite Maps
  • Weather Map
  • Weather Widgets
  • user-avatar
    Login

    Hourly Weather Levallois-Perret

    Today, 19 April, Friday

    Time Temperature Precipitation Wind Pressure Humidity
    00:00 +15°C° 0 mm 2 mps 761 mmHg 72%
    01:00 +15°C° 0 mm 2 mps 761 mmHg 73%
    02:00 +14°C° 0 mm 2 mps 761 mmHg 75%
    03:00 +13°C° 0 mm 2 mps 761 mmHg 76%
    04:00 +13°C° 0 mm 2 mps 761 mmHg 77%
    05:00 +13°C° 0 mm 2 mps 762 mmHg 77%
    06:00 +13°C° 0 mm 2 mps 762 mmHg 78%
    07:00 +15°C° 0 mm 2 mps 762 mmHg 72%
    08:00 +16°C° 0 mm 2 mps 763 mmHg 65%
    09:00 +18°C° 0 mm 2 mps 763 mmHg 59%
    10:00 +20°C° 0 mm 2 mps 763 mmHg 54%
    11:00 +21°C° 0 mm 2 mps 763 mmHg 50%
    12:00 +24°C° 0 mm 2 mps 763 mmHg 45%
    13:00 +24°C° 0 mm 2 mps 763 mmHg 45%
    14:00 +24°C° 0 mm 2 mps 763 mmHg 44%
    15:00 +25°C° 0 mm 2 mps 763 mmHg 44%
    16:00 +24°C° 0.4 mm 3 mps 763 mmHg 49%
    17:00 +22°C° 0.4 mm 3 mps 763 mmHg 54%
    18:00 +21°C° 0.4 mm 3 mps 763 mmHg 59%
    19:00 +20°C° 0.1 mm 3 mps 763 mmHg 64%
    20:00 +19°C° 0.1 mm 2 mps 764 mmHg 68%
    21:00 +18°C° 0.1 mm 2 mps 764 mmHg 73%
    22:00 +17°C° 0 mm 2 mps 764 mmHg 75%
    23:00 +16°C° 0 mm 2 mps 764 mmHg 77%

    Tomorrow, 20 April, Saturday

    Time Temperature Precipitation Wind Pressure Humidity
    00:00 +16°C° 0 mm 2 mps 764 mmHg 80%
    01:00 +15°C° 0 mm 2 mps 764 mmHg 80%
    02:00 +15°C° 0 mm 2 mps 764 mmHg 81%
    03:00 +14°C° 0 mm 2 mps 764 mmHg 81%
    04:00 +14°C° 0 mm 2 mps 764 mmHg 81%
    05:00 +14°C° 0 mm 2 mps 764 mmHg 81%
    06:00 +14°C° 0 mm 2 mps 764 mmHg 80%
    07:00 +16°C° 0 mm 2 mps 764 mmHg 74%
    08:00 +17°C° 0 mm 3 mps 764 mmHg 68%
    09:00 +19°C° 0 mm 3 mps 764 mmHg 62%
    10:00 +20°C° 0 mm 3 mps 764 mmHg 55%
    11:00 +22°C° 0 mm 3 mps 764 mmHg 48%
    12:00 +23°C° 0 mm 4 mps 763 mmHg 41%
    13:00 +25°C° 0 mm 4 mps 763 mmHg 39%
    14:00 +25°C° 0 mm 4 mps 763 mmHg 37%
    15:00 +25°C° 0 mm 4 mps 762 mmHg 35%
    16:00 +23°C° 0 mm 4 mps 762 mmHg 39%
    17:00 +22°C° 0 mm 4 mps 762 mmHg 43%
    18:00 +22°C° 0 mm 3 mps 762 mmHg 47%
    19:00 +20°C° 0 mm 3 mps 762 mmHg 53%
    20:00 +19°C° 0 mm 3 mps 762 mmHg 58%
    21:00 +18°C° 0 mm 3 mps 762 mmHg 64%
    22:00 +17°C° 0 mm 2 mps 762 mmHg 66%
    23:00 +17°C° 0 mm 2 mps 761 mmHg 68%

    Day after tomorrow, 21 April, Sunday

    Time Temperature Precipitation Wind Pressure Humidity
    00:00 +16°C° 0 mm 2 mps 761 mmHg 70%
    01:00 +15°C° 0 mm 2 mps 761 mmHg 69%
    02:00 +15°C° 0 mm 2 mps 760 mmHg 68%
    03:00 +14°C° 0 mm 2 mps 760 mmHg 68%
    04:00 +14°C° 0 mm 2 mps 760 mmHg 66%
    05:00 +14°C° 0 mm 2 mps 760 mmHg 65%
    06:00 +14°C° 0 mm 2 mps 759 mmHg 63%
    07:00 +15°C° 0 mm 2 mps 759 mmHg 58%
    08:00 +17°C° 0 mm 2 mps 759 mmHg 53%
    09:00 +19°C° 0 mm 2 mps 759 mmHg 48%
    10:00 +20°C° 0 mm 3 mps 758 mmHg 44%
    11:00 +22°C° 0 mm 3 mps 758 mmHg 39%
    12:00 +24°C° 0 mm 3 mps 757 mmHg 34%
    13:00 +24°C° 0 mm 3 mps 757 mmHg 34%
    14:00 +25°C° 0 mm 3 mps 756 mmHg 34%
    15:00 +25°C° 0 mm 4 mps 756 mmHg 34%
    16:00 +24°C° 0 mm 3 mps 755 mmHg 37%
    17:00 +22°C° 0 mm 3 mps 755 mmHg 40%
    18:00 +21°C° 0 mm 3 mps 754 mmHg 43%
    19:00 +20°C° 0 mm 2 mps 754 mmHg 47%
    20:00 +19°C° 0 mm 2 mps 755 mmHg 50%
    21:00 +18°C° 0 mm 2 mps 755 mmHg 53%
    22:00 +17°C° 0 mm 2 mps 754 mmHg 56%
    23:00 +16°C° 0 mm 1 mps 754 mmHg 58%

    22 April, Monday

    Time Temperature Precipitation Wind Pressure Humidity
    00:00 +16°C° 0 mm 1 mps 753 mmHg 61%
    01:00 +15°C° 0 mm 1 mps 753 mmHg 62%
    02:00 +15°C° 0 mm 1 mps 752 mmHg 64%
    03:00 +14°C° 0 mm 1 mps 752 mmHg 66%
    04:00 +14°C° 0 mm 2 mps 752 mmHg 66%
    05:00 +14°C° 0 mm 2 mps 751 mmHg 67%
    06:00 +14°C° 0 mm 2 mps 751 mmHg 68%
    07:00 +15°C° 0 mm 2 mps 751 mmHg 63%
    08:00 +17°C° 0 mm 2 mps 750 mmHg 59%
    09:00 +18°C° 0 mm 2 mps 750 mmHg 54%
    10:00 +20°C° 0 mm 2 mps 750 mmHg 51%
    11:00 +21°C° 0 mm 2 mps 749 mmHg 48%
    12:00 +24°C° 0 mm 2 mps 749 mmHg 45%
    13:00 +24°C° 0.1 mm 3 mps 748 mmHg 44%
    14:00 +24°C° 0.1 mm 3 mps 748 mmHg 43%
    15:00 +24°C° 0.1 mm 3 mps 747 mmHg 43%
    16:00 +22°C° 0.4 mm 3 mps 747 mmHg 48%
    17:00 +21°C° 0.4 mm 3 mps 746 mmHg 52%
    18:00 +20°C° 0.4 mm 3 mps 746 mmHg 57%
    19:00 +19°C° 0 mm 2 mps 746 mmHg 61%
    20:00 +18°C° 0 mm 2 mps 746 mmHg 64%
    21:00 +18°C° 0 mm 2 mps 746 mmHg 68%
    22:00 +18°C° 0 mm 1 mps 746 mmHg 71%
    23:00 +16°C° 0 mm 1 mps 746 mmHg 74%

    23 April, Tuesday

    Time Temperature Precipitation Wind Pressure Humidity
    00:00 +16°C° 0 mm 1 mps 745 mmHg 76%
    01:00 +15°C° 0 mm 1 mps 745 mmHg 78%
    02:00 +15°C° 0 mm 1 mps 745 mmHg 79%
    03:00 +14°C° 0 mm 1 mps 745 mmHg 80%
    04:00 +14°C° 0 mm 0 mps 745 mmHg 79%
    05:00 +14°C° 0 mm 0 mps 745 mmHg 78%
    06:00 +14°C° 0 mm 0 mps 745 mmHg 77%
    07:00 +16°C° 0 mm 1 mps 745 mmHg 71%
    08:00 +19°C° 0 mm 1 mps 745 mmHg 64%
    09:00 +21°C° 0 mm 1 mps 745 mmHg 57%
    10:00 +21°C° 0 mm 2 mps 745 mmHg 51%
    11:00 +23°C° 0 mm 2 mps 745 mmHg 46%
    12:00 +24°C° 0 mm 2 mps 745 mmHg 40%
    13:00 +25°C° 0 mm 2 mps 744 mmHg 39%
    14:00 +25°C° 0 mm 2 mps 744 mmHg 37%
    15:00 +25°C° 0 mm 2 mps 744 mmHg 36%
    16:00 +25°C° 0 mm 2 mps 744 mmHg 39%
    17:00 +24°C° 0 mm 2 mps 744 mmHg 43%
    18:00 +23°C° 0 mm 2 mps 744 mmHg 46%
    19:00 +21°C° 0.3 mm 2 mps 745 mmHg 50%
    20:00 +20°C° 0.3 mm 2 mps 745 mmHg 54%
    21:00 +19°C° 0.3 mm 2 mps 746 mmHg 57%
    22:00 +19°C° 0.4 mm 2 mps 746 mmHg 61%
    23:00 +18°C° 0.4 mm 2 mps 746 mmHg 65%

    24 April, Wednesday

    Time Temperature Precipitation Wind Pressure Humidity
    00:00 +17°C° 0.4 mm 2 mps 746 mmHg 68%
    01:00 +17°C° 0.2 mm 2 mps 746 mmHg 71%
    02:00 +17°C° 0.2 mm 2 mps 747 mmHg 74%
    03:00 +16°C° 0.2 mm 3 mps 747 mmHg 76%
    04:00 +16°C° 0.2 mm 3 mps 747 mmHg 78%
    05:00 +16°C° 0.2 mm 2 mps 747 mmHg 81%
    06:00 +16°C° 0.2 mm 2 mps 748 mmHg 83%
    07:00 +17°C° 0 mm 3 mps 748 mmHg 79%
    08:00 +18°C° 0 mm 3 mps 748 mmHg 75%
    09:00 +19°C° 0 mm 4 mps 749 mmHg 70%
    10:00 +20°C° 0 mm 4 mps 749 mmHg 65%
    11:00 +21°C° 0 mm 4 mps 749 mmHg 59%
    12:00 +22°C° 0 mm 3 mps 749 mmHg 53%
    13:00 +22°C° 0.1 mm 4 mps 749 mmHg 52%
    14:00 +22°C° 0.1 mm 4 mps 749 mmHg 52%
    15:00 +22°C° 0.1 mm 4 mps 748 mmHg 51%
    16:00 +22°C° 0.2 mm 4 mps 748 mmHg 55%
    17:00 +21°C° 0.2 mm 3 mps 748 mmHg 59%
    18:00 +20°C° 0.2 mm 3 mps 749 mmHg 62%
    19:00 +20°C° 0.4 mm 2 mps 749 mmHg 68%
    20:00 +19°C° 0.4 mm 2 mps 749 mmHg 73%
    21:00 +18°C° 0.4 mm 2 mps 749 mmHg 79%
    22:00 +18°C° 0 mm 2 mps 750 mmHg 78%
    23:00 +18°C° 0 mm 1 mps 750 mmHg 77%
    Show more